Santee, CA

11:23 AM PDT on September 29, 2016 (GMT -0700)
Gillespie

Weather History for KSEE - January, 2013

Change the Weather History Date:

Thursday, January 31, 2013

  Actual Average Record
Temperature  
Mean Temperature 56 °F -  
Max Temperature 73 °F 69 °F 91 °F (2003)
Min Temperature 39 °F 40 °F 28 °F (2002)
Degree Days  
Heating Degree Days 9    
Growing Degree Days 6 (Base 50)    
Moisture  
Dew Point 41 °F    
Average Humidity 85    
Maximum Humidity 100    
Minimum Humidity 27    
Precipitation  
Precipitation 0.00 in - - ()
Sea Level Pressure  
Sea Level Pressure 30.19 in    
Wind  
Wind Speed 0 mph (NW)    
Max Wind Speed 4 mph    
Max Gust Speed -    
Visibility 11 miles    
Events      
Averages and records for this station are not official NWS values.
T = Trace of Precipitation, MM = Missing Value Source: NWS Daily Summary

Daily Weather History Graph

Daily Weather History Graph

Search for Another Location

Airport or City:

Trip Planner

Search our weather history database for the weather conditions in past years. The results will help you decide how hot, cold, wet, or windy it might be!

Date:

Astronomy

Jan. 31, 2013 Rise Set
Actual Time 6:43 AM PST 5:19 PM PST
Civil Twilight 6:17 AM PST 5:45 PM PST
Nautical Twilight 5:47 AM PST 6:15 PM PST
Astronomical Twilight 5:18 AM PST 6:44 PM PST
Moon 10:06 PM PST (1/31) 9:03 AM PST (1/31)
Length of Visible Light 11h 28m
Length of Day
10h 36m
Waning Gibbous, 79% of the Moon is Illuminated
Jan 31
Waning Gibbous
Feb 3
Last Quarter
Feb 9
New
Feb 17
First Quarter
Feb 25
Full

Hourly Weather History & Observations

Time (PST) Temp. Windchill Dew Point Humidity Pressure Visibility Wind Dir Wind Speed Gust Speed Precip Events Conditions
12:15 AM 44.6 °F - 39.2 °F 81% 30.26 in 10.0 mi Calm Calm - N/A   Clear
12:35 AM 44.6 °F - 39.2 °F 81% 30.25 in 10.0 mi Calm Calm - N/A   Clear
12:55 AM 42.8 °F - 39.2 °F 87% 30.25 in 10.0 mi Calm Calm - N/A   Clear
1:15 AM 42.8 °F - 39.2 °F 87% 30.24 in 10.0 mi Calm Calm - N/A   Clear
1:35 AM 42.8 °F 41.1 °F 41.0 °F 93% 30.23 in 10.0 mi NW 3.5 mph - N/A   Clear
1:55 AM 42.8 °F - 41.0 °F 93% 30.23 in 10.0 mi Calm Calm - N/A   Clear
2:15 AM 42.8 °F - 41.0 °F 93% 30.22 in 10.0 mi Calm Calm - N/A   Clear
2:35 AM 42.8 °F - 41.0 °F 93% 30.21 in 10.0 mi Calm Calm - N/A   Clear
2:55 AM 42.8 °F - 41.0 °F 93% 30.21 in 10.0 mi Calm Calm - N/A   Clear
3:15 AM 42.8 °F - 41.0 °F 93% 30.20 in 10.0 mi Calm Calm - N/A   Clear
3:35 AM 41.0 °F - 41.0 °F 100% 30.20 in 10.0 mi Calm Calm - N/A   Clear
3:55 AM 41.0 °F - 41.0 °F 100% 30.20 in 10.0 mi Calm Calm - N/A   Clear
4:15 AM 41.0 °F - 41.0 °F 100% 30.19 in 10.0 mi Calm Calm - N/A   Clear
4:35 AM 39.2 °F - 39.2 °F 100% 30.19 in 10.0 mi Calm Calm - N/A   Clear
4:55 AM 39.2 °F - 39.2 °F 100% 30.19 in 10.0 mi Calm Calm - N/A   Clear
5:15 AM 39.2 °F - 39.2 °F 100% 30.19 in 10.0 mi Calm Calm - N/A   Clear
6:47 AM 39.2 °F - 39.2 °F 100% 30.19 in 20.0 mi Calm Calm - N/A   Partly Cloudy
7:47 AM 41.0 °F - 41.0 °F 100% 30.21 in 20.0 mi Calm Calm - N/A   Mostly Cloudy
8:47 AM 46.4 °F - 41.0 °F 81% 30.23 in 20.0 mi Calm Calm - N/A   Scattered Clouds
12:47 PM 73.4 °F - 37.4 °F 27% 30.13 in 20.0 mi Calm Calm - N/A   Mostly Cloudy
8:15 PM 53.6 °F - 41.0 °F 62% 30.15 in 10.0 mi Calm Calm - N/A   Clear
8:35 PM 53.6 °F - 42.8 °F 67% 30.15 in 10.0 mi Calm Calm - N/A   Clear
8:55 PM 51.8 °F - 42.8 °F 71% 30.15 in 10.0 mi Calm Calm - N/A   Clear
9:15 PM 51.8 °F - 42.8 °F 71% 30.15 in 10.0 mi Calm Calm - N/A   Clear
9:35 PM 50.0 °F - 42.8 °F 76% 30.15 in 10.0 mi Calm Calm - N/A   Clear
9:55 PM 50.0 °F - 42.8 °F 76% 30.14 in 10.0 mi WNW 3.5 mph - N/A   Clear
10:15 PM 50.0 °F - 42.8 °F 76% 30.14 in 10.0 mi Calm Calm - N/A   Clear
10:35 PM 48.2 °F - 42.8 °F 82% 30.14 in 10.0 mi Calm Calm - N/A   Clear
10:55 PM 48.2 °F - 42.8 °F 82% 30.15 in 10.0 mi Calm Calm - N/A   Clear
11:15 PM 46.4 °F - 42.8 °F 87% 30.14 in 10.0 mi Calm Calm - N/A   Clear
11:35 PM 46.4 °F - 42.8 °F 87% 30.14 in 10.0 mi Calm Calm - N/A   Clear
11:55 PM 46.4 °F - 42.8 °F 87% 30.15 in 10.0 mi Calm Calm - N/A   Clear